星链-31354 (STARLINK-31354 )

导读

STARLINK-31354是美国SpaceX星链星座的卫星,于2024年2月10日发射入轨,隶属于第二代星链组网卫星,主要为全球范围提供低延迟、高速率的卫星互联网服务,覆盖偏远地区、移动载体等场景,支撑星链星座的规模组网与服务能力扩容,目前已正常在轨运行超两年,承担全球卫星互联网接入任务。

基本信息
目录编号:
58942
目录名称:
STARLINK-31354
国际标识:
2024-027M
轨道中心:
EARTH
卫星名称:
星链-31354
卫星全名:
星链-31354 (STARLINK-31354 )
卫星状态:
在轨 (已飞行938 天)
发射日期:
2024-02-10 UTC
国别 :
美国 (US)
星等 :
--
轨道信息
数据来源 国际轨道数据
星历时间: 2026-09-04T21:47:22+0800
21小时前
查看轨道信息
半长轴: 6848.879km
偏心率: 0.0001424
轨道倾角: 53.160°
近地点辐角 92.878°
升交点赤经 197.498°
平近点角 267.238°
近地点: 469.766km
远地点: 471.718km
周期: 94.013分钟
每日圈数: 15.316996
详细信息
固有亮度:
5
最大亮度:
0.3
卫星平台:
Starlink v2.0 mini
覆盖范围:
全球
运营商:
太空探索技术公司
运营商所在国:
美国
制造商(研发单位):
太空探索技术公司
制造商所在国:
美国
使用方式:
暂无
卫星简介
星链(Starlink)计划是由太空探索技术公司(SpaceX)提出的一个巨型低轨卫星互联网星座项目,计划在2019年至2024年间在太空搭建由约1.2万颗卫星组成的“星链”网络,其中1584颗将部署在地球上空550千米处的近地轨道,并从2020年开始工作。该卫星仍在工作。
2D轨道图
3D轨道图
轨道高度分析图
轨道倾角分析图
轨道综合分析图
查看轨道综合分析图
交会数据列表
事件ID 空间交会对象 最接近时刻(TCA) 交会距离 交会风险概率(CRP) 交会风险指数(CRI) 操作
CDM_260905-182905-894206-262521
2026-09-05T
18:29:15+0000
2.934 km
极远距离
1.330487E-6 低风险 0.37